DW5567 Weather Reports


Display with metric or nautical units.
time (UTC)temp
F
wind
direction
speed
MPH
gust
MPH
rain 1hr
in
rain 24hr
in
rain mn
in
humidity
%
barometer
mb
20260906143029 86 152 0.0 0.0 0.00 1.26 0.00 83 1014.7
20260906141528 85 65 0.0 0.0 0.00 1.26 0.00 86 1014.6
20260906140028 85 149 0.0 0.0 0.00 1.26 0.00 89 1014.6
20260906134525 84 360 0.0 0.0 0.00 1.26 0.00 94 1014.3
20260906133016 81 360 0.0 0.0 0.00 1.26 0.00 94 1014.6
20260906131513 80 360 0.0 0.0 0.00 1.26 0.00 94 1014.4
20260906130009 78 360 0.0 0.0 0.00 1.26 0.00 94 1014.4
20260906124506 77 359 0.0 0.0 0.00 1.27 0.00 94 1014.4
20260906123005 77 360 0.0 0.0 0.00 1.27 0.00 94 1014.0
20260906121503 77 359 0.0 0.0 0.00 1.27 0.00 94 1014.1
20260906120110 76 340 0.0 0.0 0.00 1.27 0.00 94 1013.9
20260906114556 75 340 0.0 0.0 0.00 1.27 0.00 94 1013.6
20260906113057 0 0.0 0.0 0.00 1.27 0.00 1013.4
20260906111556 0 0.0 0.0 0.00 1.27 0.00 1013.2
20260906110054 0 0.0 0.0 0.00 1.27 0.00 1012.9
20260906104554 0 0.0 0.0 0.00 1.27 0.00 1012.8
20260906103057 0 0.0 0.0 0.00 1.27 0.00 1012.4
20260906101548 0 0.0 0.0 0.00 1.27 0.00 1012.2
20260906100045 0 0.0 0.0 0.00 1.27 0.00 1012.4
20260906094541 0 0.0 0.0 0.00 1.27 0.00 1012.4
20260906093042 0 0.0 0.0 0.00 1.27 0.00 1012.3
20260906091532 0 0.0 0.0 0.00 1.27 0.00 1012.1
20260906090028 0 0.0 0.0 0.00 1.27 0.00 1011.8
20260906084523 0 0.0 0.0 0.00 1.27 0.00 1011.6
20260906083019 0 0.0 0.0 0.00 1.27 0.00 1011.5
20260906081514 0 0.0 0.0 0.00 1.27 0.00 1011.5
20260906080011 0 0.0 0.0 0.00 1.27 0.00 1011.6
20260906074506 0 0.0 0.0 0.00 1.27 0.00 1011.7
20260906073002 0 0.0 0.0 0.00 1.27 0.00 1011.8
20260906071559 0 0.0 0.0 0.00 1.27 0.00 1011.9
20260906070053 0 0.0 0.0 0.00 1.27 0.00 1012.2
20260906064549 0 0.0 0.0 0.00 1.27 0.00 1012.7
20260906063044 0 0.0 0.0 0.00 1.27 0.00 1012.9
20260906061541 73 226 0.0 1.0 0.00 1.27 0.00 94 1013.0
20260906060039 74 226 0.0 0.0 0.00 1.27 0.00 94 1013.0
20260906054539 74 226 0.0 1.0 0.00 1.27 0.00 94 1013.1
20260906053036 74 348 0.0 0.0 0.00 1.27 0.00 94 1013.4
20260906051534 75 349 0.0 0.0 0.00 1.27 0.00 94 1013.5
20260906050034 75 349 0.0 0.0 0.00 1.27 0.00 94 1013.6
20260906044532 75 349 0.0 1.0 0.00 1.27 0.00 94 1013.4
20260906043028 74 349 0.0 0.0 0.00 1.27 0.00 94 1013.2
20260906041525 74 349 0.0 0.0 0.00 1.27 0.00 93 1013.5
20260906040022 74 349 0.0 0.0 0.00 1.27 0.00 93 1013.7
20260906034521 74 349 0.0 0.0 0.01 1.27 1.27 93 1014.1
20260906033021 74 349 0.0 1.0 0.01 1.27 1.27 93 1014.3
20260906031519 74 349 0.0 3.0 0.01 1.27 1.27 93 1015.0
20260906030018 75 252 0.0 0.0 0.01 1.27 1.27 93 1015.4
20260906024517 75 252 0.0 2.0 0.00 1.26 1.26 93 1015.7
20260906023017 76 260 0.0 2.0 0.00 1.26 1.26 93 1016.1
20260906021528 76 242 1.0 3.0 0.01 1.26 1.26 93 1016.0
20260906020019 76 211 0.0 1.0 0.02 1.26 1.26 93 1016.1
20260906014519 75 211 0.0 2.0 0.03 1.26 1.26 93 1016.1
20260906013031 75 118 0.0 2.0 0.04 1.26 1.26 93 1015.8
20260906011513 75 115 0.0 1.0 0.05 1.25 1.25 93 1015.2
20260906010017 75 113 0.0 0.0 0.08 1.24 1.24 93 1014.7
20260906004514 75 113 0.0 0.0 0.26 1.23 1.23 93 1014.4
20260906003019 75 113 0.0 3.0 0.40 1.22 1.22 93 1014.4
20260906001511 76 63 1.0 6.0 0.68 1.20 1.20 93 1014.4
20260906000006 77 81 4.0 9.0 1.14 1.15 1.15 93 1014.6
20260905234504 76 9 0.0 4.0 0.95 0.96 0.96 93 1014.5
20260905233005 77 349 0.0 3.0 0.80 0.81 0.81 92 1014.4
20260905231504 79 239 0.0 0.0 0.49 0.50 0.50 89 1014.2
20260905230007 83 155 0.0 0.0 0.00 0.01 0.01 83 1014.1
20260905224503 83 155 0.0 0.0 0.00 0.01 0.01 84 1014.2
20260905223003 84 155 0.0 0.0 0.00 0.01 0.01 84 1014.0
20260905221603 84 170 0.0 0.0 0.00 0.01 0.01 83 1013.3
20260905220100 84 353 0.0 0.0 0.00 0.01 0.01 85 1013.4
20260905214558 84 353 0.0 0.0 0.00 0.01 0.01 85 1013.2
20260905213105 84 353 0.0 0.0 0.00 0.01 0.01 85 1012.9
20260905211608 84 349 0.0 0.0 0.00 0.01 0.01 84 1012.9
20260905210109 85 300 0.0 0.0 0.00 0.01 0.01 82 1013.1
20260905204558 87 155 0.0 0.0 0.00 0.01 0.01 79 1012.9
20260905203055 87 155 0.0 1.0 0.00 0.01 0.01 78 1012.9
20260905201554 87 155 0.0 0.0 0.00 0.01 0.01 77 1013.0
20260905200154 88 147 0.0 1.0 0.00 0.01 0.01 76 1013.0
20260905194554 89 208 0.0 0.0 0.00 0.07 0.01 75 1013.1
20260905193052 90 128 0.0 0.0 0.00 0.07 0.01 73 1013.0
20260905191549 91 202 0.0 1.0 0.00 0.07 0.01 73 1013.3
20260905190056 90 163 0.0 0.0 0.00 0.07 0.01 75 1013.7
20260905184548 89 205 0.0 0.0 0.00 0.10 0.01 75 1013.6
20260905183057 87 281 0.0 0.0 0.00 0.10 0.01 78 1013.7
20260905181547 86 281 0.0 0.0 0.00 0.10 0.01 80 1013.9
20260905180046 86 16 0.0 0.0 0.00 0.10 0.01 80 1014.0
20260905174542 86 255 0.0 0.0 0.00 0.10 0.01 77 1014.1
20260905173041 88 231 0.0 0.0 0.00 0.10 0.01 75 1014.2
20260905171546 91 156 0.0 0.0 0.00 0.10 0.01 71 1014.3
20260905170036 92 131 0.0 0.0 0.00 0.10 0.01 74 1014.5
20260905164534 92 71 0.0 1.0 0.00 0.10 0.01 73 1014.7
20260905163031 93 160 0.0 0.0 0.00 0.10 0.01 70 1015.1
20260905161526 92 163 0.0 1.0 0.00 0.10 0.01 72 1015.2
20260905160022 91 200 0.0 1.0 0.00 0.10 0.01 71 1015.3
20260905154519 91 205 0.0 1.0 0.00 0.10 0.01 73 1015.3
20260905153017 90 140 0.0 1.0 0.00 0.10 0.01 76 1015.3
20260905151513 89 161 0.0 0.0 0.00 0.10 0.01 79 1015.4
20260905150009 88 190 0.0 0.0 0.00 0.10 0.01 83 1015.2
20260905144514 87 200 0.0 1.0 0.00 0.10 0.01 84 1015.2